| time (UTC) | temp C | wind direction | speed KPH | gust KPH | rain 1hr cm | rain 24hr cm | rain mn cm | humidity % | barometer mb |
| 20260502195525 | 19 | 13 | 4.8 | 22.5 | 0.00 | 0.00 | 0.00 | 67 | 1015.8 |
| 20260502195025 | 19 | 24 | 6.4 | 22.5 | 0.00 | 0.00 | 0.00 | 69 | 1015.8 |
| 20260502194541 | 18 | 19 | 11.3 | 22.5 | 0.00 | 0.00 | 0.00 | 67 | 1015.9 |
| 20260502194027 | 18 | 47 | 4.8 | 22.5 | 0.00 | 0.00 | 0.00 | 68 | 1016.0 |
| 20260502193526 | 18 | 13 | 4.8 | 22.5 | 0.00 | 0.00 | 0.00 | 69 | 1016.1 |
| 20260502193041 | 18 | 26 | 12.9 | 20.9 | 0.00 | 0.00 | 0.00 | 69 | 1016.3 |
| 20260502192525 | 18 | 64 | 9.7 | 20.9 | 0.00 | 0.00 | 0.00 | 70 | 1016.3 |
| 20260502192025 | 18 | 290 | 9.7 | 24.1 | 0.00 | 0.00 | 0.00 | 70 | 1016.2 |
| 20260502191541 | 18 | 82 | 9.7 | 24.1 | 0.00 | 0.00 | 0.00 | 70 | 1016.3 |
| 20260502191025 | 18 | 346 | 14.5 | 25.7 | 0.00 | 0.00 | 0.00 | 70 | 1016.2 |
| 20260502190525 | 18 | 62 | 8.0 | 25.7 | 0.00 | 0.00 | 0.00 | 72 | 1016.3 |
| 20260502190042 | 18 | 18 | 11.3 | 22.5 | 0.00 | 0.00 | 0.00 | 70 | 1016.4 |
| 20260502185525 | 17 | 102 | 9.7 | 20.9 | 0.00 | 0.00 | 0.00 | 70 | 1016.5 |
| 20260502185025 | 17 | 345 | 4.8 | 16.1 | 0.00 | 0.00 | 0.00 | 74 | 1016.4 |
| 20260502184539 | 17 | 29 | 6.4 | 16.1 | 0.00 | 0.00 | 0.00 | 74 | 1016.6 |
| 20260502184025 | 17 | 96 | 4.8 | 20.9 | 0.00 | 0.00 | 0.00 | 73 | 1016.6 |
| 20260502183526 | 17 | 15 | 8.0 | 20.9 | 0.00 | 0.00 | 0.00 | 76 | 1016.7 |
| 20260502183042 | 16 | 336 | 12.9 | 20.9 | 0.00 | 0.00 | 0.00 | 73 | 1016.7 |
| 20260502182529 | 17 | 19 | 11.3 | 20.9 | 0.00 | 0.00 | 0.00 | 73 | 1016.7 |
| 20260502182025 | 16 | 141 | 9.7 | 20.9 | 0.00 | 0.00 | 0.00 | 74 | 1016.8 |
| 20260502181540 | 16 | 162 | 11.3 | 20.9 | 0.00 | 0.00 | 0.00 | 74 | 1016.8 |
| 20260502181025 | 16 | 321 | 6.4 | 20.9 | 0.00 | 0.00 | 0.00 | 75 | 1016.9 |
| 20260502180525 | 16 | 319 | 3.2 | 17.7 | 0.00 | 0.00 | 0.00 | 76 | 1016.8 |
| 20260502164025 | 12 | 338 | 3.2 | 8.0 | 0.00 | 0.00 | 0.00 | 88 | 1017.5 |
| 20260502163525 | 12 | 307 | 3.2 | 6.4 | 0.00 | 0.00 | 0.00 | 89 | 1017.4 |
| 20260502163042 | 12 | 69 | 1.6 | 9.7 | 0.00 | 0.00 | 0.00 | 91 | 1017.4 |
| 20260502162529 | 11 | 86 | 3.2 | 9.7 | 0.00 | 0.00 | 0.00 | 92 | 1017.4 |
| 20260502162026 | 11 | 291 | 3.2 | 9.7 | 0.00 | 0.00 | 0.00 | 92 | 1017.4 |
| 20260502161539 | 11 | 94 | 0.0 | 4.8 | 0.00 | 0.00 | 0.00 | 94 | 1017.5 |
| 20260502161029 | 11 | 298 | 0.0 | 3.2 | 0.00 | 0.00 | 0.00 | 94 | 1017.6 |
| 20260502160528 | 10 | 68 | 1.6 | 4.8 | 0.00 | 0.00 | 0.00 | 94 | 1017.6 |
| 20260502152024 | 10 | 348 | 3.2 | 9.7 | 0.00 | 0.00 | 0.00 | 97 | 1017.5 |
| 20260502151544 | 10 | 11 | 1.6 | 9.7 | 0.00 | 0.00 | 0.00 | 97 | 1017.6 |
| 20260502151025 | 9 | 60 | 4.8 | 9.7 | 0.00 | 0.00 | 0.00 | 97 | 1017.6 |
| 20260502150525 | 9 | 307 | 1.6 | 3.2 | 0.00 | 0.00 | 0.00 | 98 | 1017.5 |
| 20260502130528 | 6 | 0 | 0.0 | 3.2 | 0.00 | 0.00 | 0.00 | 97 | 1017.1 |
| 20260502123524 | 7 | 0 | 0.0 | 3.2 | 0.00 | 0.00 | 0.00 | 97 | 1016.9 |
| 20260502123043 | 6 | 348 | 1.6 | 3.2 | 0.00 | 0.00 | 0.00 | 97 | 1017.0 |
| 20260502122525 | 6 | 346 | 0.0 | 1.6 | 0.00 | 0.00 | 0.00 | 97 | 1017.3 |
| 20260502122025 | 6 | 285 | 0.0 | 1.6 | 0.00 | 0.00 | 0.00 | 97 | 1017.3 |
| 20260502121540 | 6 | 262 | 0.0 | 1.6 | 0.00 | 0.00 | 0.00 | 97 | 1017.4 |
| 20260502121026 | 6 | 263 | 0.0 | 1.6 | 0.00 | 0.00 | 0.00 | 97 | 1017.4 |
| 20260502120525 | 6 | 0 | 0.0 | 1.6 | 0.00 | 0.00 | 0.00 | 96 | 1017.4 |
| 20260502115525 | 7 | 0 | 0.0 | 1.6 | 0.00 | 0.00 | 0.00 | 96 | 1017.6 |
| 20260502115025 | 7 | 0 | 0.0 | 1.6 | 0.00 | 0.00 | 0.00 | 96 | 1017.5 |
| 20260502114600 | 7 | 0 | 0.0 | 1.6 | 0.00 | 0.00 | 0.00 | 96 | 1017.4 |
| 20260502114023 | 7 | 0 | 0.0 | 1.6 | 0.00 | 0.00 | 0.00 | 96 | 1017.4 |
| 20260502113525 | 7 | 262 | 1.6 | 1.6 | 0.00 | 0.00 | 0.00 | 97 | 1017.4 |
| 20260502113046 | 7 | 0 | 0.0 | 0.0 | 0.00 | 0.00 | 0.00 | 96 | 1017.5 |
| 20260502112525 | 7 | 175 | 0.0 | 1.6 | 0.00 | 0.00 | 0.00 | 96 | 1017.5 |
| 20260502112027 | 7 | 0 | 0.0 | 4.8 | 0.00 | 0.00 | 0.00 | 96 | 1017.5 |
| 20260502111542 | 7 | 175 | 1.6 | 4.8 | 0.00 | 0.00 | 0.00 | 96 | 1017.6 |
| 20260502111025 | 7 | 164 | 0.0 | 1.6 | 0.00 | 0.00 | 0.00 | 96 | 1017.4 |
| 20260502110525 | 7 | 0 | 0.0 | 1.6 | 0.00 | 0.00 | 0.00 | 96 | 1017.4 |
| 20260502110041 | 7 | 21 | 0.0 | 1.6 | 0.00 | 0.00 | 0.00 | 96 | 1017.3 |
| 20260502105525 | 7 | 0 | 0.0 | 1.6 | 0.00 | 0.00 | 0.00 | 96 | 1017.2 |
| 20260502105025 | 7 | 0 | 0.0 | 3.2 | 0.00 | 0.00 | 0.00 | 96 | 1017.1 |
| 20260502104541 | 7 | 0 | 0.0 | 3.2 | 0.00 | 0.00 | 0.00 | 96 | 1017.3 |
| 20260502104024 | 7 | 21 | 1.6 | 3.2 | 0.00 | 0.00 | 0.00 | 96 | 1017.4 |
| 20260502103525 | 7 | 0 | 0.0 | 1.6 | 0.00 | 0.00 | 0.00 | 96 | 1017.8 |
| 20260502103040 | 7 | 21 | 1.6 | 1.6 | 0.00 | 0.00 | 0.00 | 97 | 1017.8 |
| 20260502102526 | 7 | 125 | 0.0 | 0.0 | 0.00 | 0.00 | 0.00 | 96 | 1018.0 |
| 20260502102026 | 7 | 0 | 0.0 | 0.0 | 0.00 | 0.00 | 0.00 | 96 | 1018.2 |
| 20260502101558 | 7 | 0 | 0.0 | 1.6 | 0.00 | 0.00 | 0.00 | 96 | 1018.2 |
| 20260502101025 | 7 | 0 | 0.0 | 1.6 | 0.00 | 0.00 | 0.00 | 96 | 1018.2 |
| 20260502100525 | 7 | 125 | 0.0 | 1.6 | 0.00 | 0.00 | 0.00 | 96 | 1018.2 |
| 20260502091024 | 8 | 115 | 1.6 | 4.8 | 0.00 | 0.00 | 0.00 | 95 | 1017.4 |
| 20260502090524 | 8 | 0 | 0.0 | 0.0 | 0.00 | 0.00 | 0.00 | 95 | 1017.3 |
| 20260502071025 | 8 | 153 | 0.0 | 3.2 | 0.00 | 0.00 | 0.00 | 92 | 1017.5 |
| 20260502070525 | 8 | 120 | 0.0 | 3.2 | 0.00 | 0.00 | 0.00 | 92 | 1017.4 |
| 20260502070035 | 8 | 138 | 1.6 | 3.2 | 0.00 | 0.00 | 0.00 | 92 | 1017.3 |
| 20260502065525 | 8 | 142 | 1.6 | 1.6 | 0.00 | 0.00 | 0.00 | 91 | 1017.3 |
| 20260502065025 | 9 | 124 | 0.0 | 4.8 | 0.00 | 0.00 | 0.00 | 91 | 1017.2 |
| 20260502064611 | 9 | 142 | 0.0 | 4.8 | 0.00 | 0.00 | 0.00 | 91 | 1017.2 |
| 20260502064025 | 9 | 161 | 3.2 | 4.8 | 0.00 | 0.00 | 0.00 | 91 | 1017.3 |
| 20260502063525 | 9 | 170 | 1.6 | 6.4 | 0.00 | 0.00 | 0.00 | 90 | 1017.3 |
| 20260502063052 | 9 | 139 | 1.6 | 6.4 | 0.00 | 0.00 | 0.00 | 90 | 1017.3 |
| 20260502062525 | 9 | 128 | 3.2 | 6.4 | 0.00 | 0.00 | 0.00 | 90 | 1017.2 |
| 20260502062024 | 10 | 157 | 4.8 | 6.4 | 0.00 | 0.00 | 0.00 | 89 | 1017.3 |
| 20260502061543 | 10 | 147 | 1.6 | 4.8 | 0.00 | 0.00 | 0.00 | 89 | 1017.2 |
| 20260502061024 | 10 | 138 | 3.2 | 4.8 | 0.00 | 0.00 | 0.00 | 90 | 1017.3 |
| 20260502060527 | 10 | 181 | 1.6 | 3.2 | 0.00 | 0.00 | 0.00 | 89 | 1017.2 |
| 20260502060046 | 10 | 171 | 1.6 | 3.2 | 0.00 | 0.00 | 0.00 | 89 | 1017.3 |
| 20260502055524 | 10 | 172 | 3.2 | 6.4 | 0.00 | 0.00 | 0.00 | 88 | 1017.3 |
| 20260502055024 | 10 | 161 | 3.2 | 6.4 | 0.00 | 0.00 | 0.00 | 88 | 1017.3 |
| 20260502054538 | 10 | 145 | 3.2 | 6.4 | 0.00 | 0.00 | 0.00 | 88 | 1017.3 |
| 20260502054025 | 10 | 135 | 3.2 | 6.4 | 0.00 | 0.00 | 0.00 | 88 | 1017.3 |
| 20260502053524 | 10 | 150 | 3.2 | 6.4 | 0.00 | 0.00 | 0.00 | 88 | 1017.3 |
| 20260502053049 | 10 | 148 | 4.8 | 6.4 | 0.00 | 0.00 | 0.00 | 88 | 1017.2 |
| 20260502052525 | 10 | 188 | 4.8 | 6.4 | 0.00 | 0.00 | 0.00 | 88 | 1017.3 |
| 20260502052025 | 10 | 173 | 3.2 | 8.0 | 0.00 | 0.00 | 0.00 | 87 | 1017.2 |
| 20260502051542 | 10 | 152 | 3.2 | 9.7 | 0.00 | 0.00 | 0.00 | 87 | 1017.2 |
| 20260502051027 | 10 | 167 | 4.8 | 9.7 | 0.00 | 0.00 | 0.00 | 87 | 1017.1 |
| 20260502050525 | 11 | 175 | 6.4 | 9.7 | 0.00 | 0.00 | 0.00 | 87 | 1017.1 |
| 20260502050045 | 11 | 161 | 4.8 | 8.0 | 0.00 | 0.00 | 0.00 | 86 | 1017.1 |
| 20260502045525 | 11 | 175 | 4.8 | 9.7 | 0.00 | 0.00 | 0.00 | 86 | 1017.1 |
| 20260502045024 | 11 | 153 | 6.4 | 11.3 | 0.00 | 0.00 | 0.00 | 86 | 1017.0 |
| 20260502044541 | 11 | 171 | 8.0 | 12.9 | 0.00 | 0.00 | 0.00 | 85 | 1017.0 |
| 20260502044026 | 11 | 169 | 8.0 | 12.9 | 0.00 | 0.00 | 0.00 | 84 | 1016.8 |
| 20260502043526 | 11 | 160 | 8.0 | 12.9 | 0.00 | 0.00 | 0.00 | 84 | 1016.7 |
| 20260502043105 | 12 | 146 | 8.0 | 11.3 | 0.00 | 0.00 | 0.00 | 83 | 1016.8 |
| 20260502042526 | 12 | 143 | 6.4 | 11.3 | 0.00 | 0.00 | 0.00 | 82 | 1016.6 |
| 20260502042026 | 12 | 142 | 6.4 | 12.9 | 0.00 | 0.00 | 0.00 | 81 | 1016.5 |
| 20260502041546 | 12 | 244 | 6.4 | 14.5 | 0.00 | 0.00 | 0.00 | 80 | 1016.3 |
| 20260502041026 | 12 | 225 | 4.8 | 14.5 | 0.00 | 0.00 | 0.00 | 80 | 1016.3 |
| 20260502040528 | 12 | 235 | 6.4 | 12.9 | 0.00 | 0.00 | 0.00 | 80 | 1016.3 |
| 20260502040045 | 13 | 190 | 6.4 | 12.9 | 0.00 | 0.00 | 0.00 | 80 | 1016.3 |
| 20260502035527 | 13 | 225 | 4.8 | 14.5 | 0.00 | 0.00 | 0.00 | 79 | 1016.1 |
| 20260502035028 | 13 | 210 | 4.8 | 16.1 | 0.00 | 0.00 | 0.00 | 79 | 1016.1 |
| 20260502034541 | 13 | 231 | 8.0 | 16.1 | 0.00 | 0.00 | 0.00 | 78 | 1016.0 |
| 20260502034027 | 13 | 193 | 6.4 | 14.5 | 0.00 | 0.00 | 0.00 | 78 | 1015.9 |
| 20260502033527 | 13 | 219 | 6.4 | 12.9 | 0.00 | 0.00 | 0.00 | 77 | 1015.8 |
| 20260502033040 | 13 | 188 | 4.8 | 16.1 | 0.00 | 0.00 | 0.00 | 77 | 1015.8 |
| 20260502032526 | 14 | 222 | 6.4 | 16.1 | 0.00 | 0.00 | 0.00 | 76 | 1015.8 |
| 20260502032026 | 14 | 162 | 6.4 | 14.5 | 0.00 | 0.00 | 0.00 | 77 | 1015.8 |
| 20260502031540 | 14 | 173 | 4.8 | 14.5 | 0.00 | 0.00 | 0.00 | 76 | 1015.7 |
| 20260502031027 | 15 | 196 | 6.4 | 14.5 | 0.00 | 0.00 | 0.00 | 75 | 1015.6 |
| 20260502030526 | 15 | 179 | 6.4 | 16.1 | 0.00 | 0.00 | 0.00 | 74 | 1015.4 |
| 20260502030047 | 15 | 198 | 6.4 | 16.1 | 0.00 | 0.00 | 0.00 | 73 | 1015.4 |
| 20260502025526 | 15 | 157 | 4.8 | 11.3 | 0.00 | 0.00 | 0.00 | 72 | 1015.3 |
| 20260502025030 | 16 | 218 | 4.8 | 14.5 | 0.00 | 0.00 | 0.00 | 71 | 1015.3 |
| 20260502024541 | 16 | 211 | 6.4 | 14.5 | 0.00 | 0.00 | 0.00 | 70 | 1015.1 |
| 20260502024026 | 16 | 169 | 6.4 | 16.1 | 0.00 | 0.00 | 0.00 | 69 | 1015.1 |
| 20260502023526 | 16 | 194 | 6.4 | 16.1 | 0.00 | 0.00 | 0.00 | 68 | 1015.0 |
| 20260502023044 | 16 | 189 | 8.0 | 16.1 | 0.00 | 0.00 | 0.00 | 68 | 1015.0 |
| 20260502022527 | 16 | 194 | 6.4 | 16.1 | 0.00 | 0.00 | 0.00 | 67 | 1015.0 |
| 20260502022030 | 16 | 201 | 8.0 | 16.1 | 0.00 | 0.00 | 0.00 | 68 | 1014.9 |
| 20260502021541 | 16 | 231 | 4.8 | 24.1 | 0.00 | 0.00 | 0.00 | 67 | 1015.0 |
| 20260502021027 | 17 | 221 | 6.4 | 24.1 | 0.00 | 0.00 | 0.00 | 67 | 1014.9 |
| 20260502020530 | 17 | 180 | 11.3 | 17.7 | 0.00 | 0.00 | 0.00 | 66 | 1015.0 |
| 20260502020040 | 17 | 220 | 6.4 | 19.3 | 0.00 | 0.00 | 0.00 | 66 | 1015.0 |
| 20260502015527 | 17 | 244 | 9.7 | 19.3 | 0.00 | 0.00 | 0.00 | 64 | 1014.9 |
| 20260502015027 | 18 | 186 | 4.8 | 17.7 | 0.00 | 0.00 | 0.00 | 66 | 1014.9 |
| 20260502014542 | 18 | 211 | 6.4 | 17.7 | 0.00 | 0.00 | 0.00 | 65 | 1015.0 |
| 20260502014028 | 18 | 224 | 6.4 | 12.9 | 0.00 | 0.00 | 0.00 | 65 | 1014.9 |
| 20260502013526 | 18 | 229 | 6.4 | 12.9 | 0.00 | 0.00 | 0.00 | 65 | 1014.9 |
| 20260502013049 | 18 | 254 | 6.4 | 14.5 | 0.00 | 0.00 | 0.00 | 65 | 1015.0 |
| 20260502012526 | 18 | 232 | 4.8 | 20.9 | 0.00 | 0.00 | 0.00 | 66 | 1015.1 |
| 20260502012030 | 18 | 263 | 6.4 | 20.9 | 0.00 | 0.00 | 0.00 | 64 | 1015.0 |
| 20260502011539 | 19 | 200 | 6.4 | 17.7 | 0.00 | 0.00 | 0.00 | 64 | 1015.0 |
| 20260502011026 | 19 | 217 | 8.0 | 20.9 | 0.00 | 0.00 | 0.00 | 64 | 1015.0 |
| 20260502010527 | 19 | 254 | 12.9 | 24.1 | 0.00 | 0.00 | 0.00 | 62 | 1015.0 |
| 20260502010043 | 19 | 192 | 11.3 | 24.1 | 0.00 | 0.00 | 0.00 | 63 | 1014.9 |
| 20260502005527 | 20 | 256 | 12.9 | 24.1 | 0.00 | 0.00 | 0.00 | 63 | 1014.9 |
| 20260502005028 | 20 | 221 | 11.3 | 22.5 | 0.00 | 0.00 | 0.00 | 62 | 1014.9 |
| 20260502004544 | 20 | 257 | 9.7 | 22.5 | 0.00 | 0.00 | 0.00 | 63 | 1015.0 |
| 20260502004026 | 20 | 229 | 9.7 | 20.9 | 0.00 | 0.00 | 0.00 | 62 | 1014.9 |
| 20260502003526 | 21 | 257 | 9.7 | 22.5 | 0.00 | 0.00 | 0.00 | 61 | 1014.8 |
| 20260502003040 | 21 | 251 | 9.7 | 22.5 | 0.00 | 0.00 | 0.00 | 62 | 1014.7 |
| 20260502002526 | 21 | 252 | 12.9 | 22.5 | 0.00 | 0.00 | 0.00 | 62 | 1014.7 |
| 20260502002026 | 21 | 267 | 11.3 | 19.3 | 0.00 | 0.00 | 0.00 | 62 | 1014.6 |
| 20260502001540 | 22 | 283 | 12.9 | 19.3 | 0.00 | 0.00 | 0.00 | 61 | 1014.6 |
| 20260502001027 | 22 | 211 | 8.0 | 19.3 | 0.00 | 0.00 | 0.00 | 63 | 1014.6 |
| 20260502000528 | 22 | 246 | 9.7 | 19.3 | 0.00 | 0.00 | 0.00 | 62 | 1014.7 |
| 20260502000039 | 22 | 265 | 6.4 | 19.3 | 0.00 | 0.00 | 0.00 | 61 | 1014.6 |
| 20260501235526 | 22 | 278 | 8.0 | 20.9 | 0.00 | 0.00 | 0.00 | 59 | 1014.6 |
| 20260501235028 | 21 | 269 | 9.7 | 20.9 | 0.00 | 0.00 | 0.00 | 61 | 1014.5 |
| 20260501234543 | 21 | 269 | 8.0 | 19.3 | 0.00 | 0.00 | 0.00 | 58 | 1014.6 |
| 20260501234028 | 21 | 255 | 9.7 | 17.7 | 0.00 | 0.00 | 0.00 | 59 | 1014.7 |
| 20260501233528 | 21 | 254 | 8.0 | 20.9 | 0.00 | 0.00 | 0.00 | 62 | 1014.7 |
| 20260501233102 | 21 | 240 | 8.0 | 20.9 | 0.00 | 0.00 | 0.00 | 61 | 1014.8 |
| 20260501232526 | 22 | 261 | 11.3 | 22.5 | 0.00 | 0.00 | 0.00 | 59 | 1014.7 |
| 20260501232028 | 22 | 250 | 8.0 | 22.5 | 0.00 | 0.00 | 0.00 | 58 | 1014.8 |
| 20260501231551 | 22 | 244 | 9.7 | 20.9 | 0.00 | 0.00 | 0.00 | 58 | 1014.9 |
| 20260501231026 | 23 | 244 | 9.7 | 20.9 | 0.00 | 0.00 | 0.00 | 57 | 1014.9 |
| 20260501230527 | 23 | 321 | 8.0 | 17.7 | 0.00 | 0.00 | 0.00 | 56 | 1015.0 |
| 20260501230050 | 23 | 263 | 8.0 | 16.1 | 0.00 | 0.00 | 0.00 | 59 | 1015.0 |
| 20260501225527 | 23 | 238 | 8.0 | 19.3 | 0.00 | 0.00 | 0.00 | 56 | 1015.1 |
| 20260501225028 | 23 | 234 | 6.4 | 19.3 | 0.00 | 0.00 | 0.00 | 57 | 1015.1 |
| 20260501224548 | 23 | 226 | 8.0 | 19.3 | 0.00 | 0.00 | 0.00 | 55 | 1015.2 |
| 20260501224026 | 23 | 250 | 8.0 | 16.1 | 0.00 | 0.00 | 0.00 | 57 | 1015.2 |
| 20260501223526 | 23 | 271 | 8.0 | 16.1 | 0.00 | 0.00 | 0.00 | 57 | 1015.1 |
| 20260501223045 | 23 | 123 | 4.8 | 17.7 | 0.00 | 0.00 | 0.00 | 57 | 1015.2 |
| 20260501222526 | 23 | 278 | 8.0 | 17.7 | 0.00 | 0.00 | 0.00 | 61 | 1015.2 |
| 20260501222027 | 23 | 148 | 8.0 | 16.1 | 0.00 | 0.00 | 0.00 | 60 | 1015.2 |
| 20260501221541 | 23 | 184 | 3.2 | 8.0 | 0.00 | 0.00 | 0.00 | 60 | 1015.2 |
| 20260501221030 | 23 | 226 | 3.2 | 14.5 | 0.00 | 0.00 | 0.00 | 56 | 1015.3 |
| 20260501220526 | 23 | 158 | 6.4 | 16.1 | 0.00 | 0.00 | 0.00 | 59 | 1015.3 |
| 20260501220041 | 23 | 208 | 11.3 | 16.1 | 0.00 | 0.00 | 0.00 | 58 | 1015.4 |
| 20260501215527 | 23 | 160 | 6.4 | 14.5 | 0.00 | 0.00 | 0.00 | 60 | 1015.5 |
| 20260501215029 | 23 | 216 | 3.2 | 12.9 | 0.00 | 0.00 | 0.00 | 58 | 1015.5 |
| 20260501214539 | 23 | 130 | 1.6 | 12.9 | 0.00 | 0.00 | 0.00 | 59 | 1015.5 |
| 20260501214026 | 23 | 158 | 0.0 | 12.9 | 0.00 | 0.00 | 0.00 | 59 | 1015.5 |
| 20260501213526 | 23 | 281 | 4.8 | 12.9 | 0.00 | 0.00 | 0.00 | 59 | 1015.5 |
| 20260501213045 | 23 | 286 | 4.8 | 11.3 | 0.00 | 0.00 | 0.00 | 59 | 1015.6 |
| 20260501212526 | 23 | 104 | 3.2 | 9.7 | 0.00 | 0.00 | 0.00 | 59 | 1015.6 |
| 20260501212026 | 23 | 0 | 1.6 | 4.8 | 0.00 | 0.00 | 0.00 | 60 | 1015.5 |
| 20260501211546 | 22 | 78 | 1.6 | 8.0 | 0.00 | 0.00 | 0.00 | 63 | 1015.7 |
| 20260501211025 | 22 | 319 | 3.2 | 8.0 | 0.00 | 0.00 | 0.00 | 62 | 1015.7 |
| 20260501210527 | 22 | 337 | 1.6 | 8.0 | 0.00 | 0.00 | 0.00 | 62 | 1015.9 |
| 20260501210040 | 22 | 244 | 3.2 | 9.7 | 0.00 | 0.00 | 0.00 | 62 | 1016.0 |
| 20260501205526 | 22 | 259 | 1.6 | 12.9 | 0.00 | 0.00 | 0.00 | 62 | 1016.0 |
| 20260501205026 | 21 | 142 | 6.4 | 14.5 | 0.00 | 0.00 | 0.00 | 62 | 1016.0 |
| 20260501204547 | 21 | 224 | 8.0 | 14.5 | 0.00 | 0.00 | 0.00 | 63 | 1016.2 |
| 20260501204025 | 21 | 157 | 4.8 | 12.9 | 0.00 | 0.00 | 0.00 | 66 | 1016.1 |
| 20260501203526 | 21 | 211 | 4.8 | 14.5 | 0.00 | 0.00 | 0.00 | 65 | 1016.2 |
| 20260501203040 | 21 | 213 | 4.8 | 14.5 | 0.00 | 0.00 | 0.00 | 63 | 1016.1 |
| 20260501202526 | 21 | 233 | 6.4 | 12.9 | 0.00 | 0.00 | 0.00 | 64 | 1016.2 |
| 20260501202026 | 21 | 217 | 6.4 | 12.9 | 0.00 | 0.00 | 0.00 | 63 | 1016.3 |
| 20260501201546 | 21 | 221 | 9.7 | 12.9 | 0.00 | 0.00 | 0.00 | 62 | 1016.3 |
| 20260501201026 | 21 | 210 | 6.4 | 11.3 | 0.00 | 0.00 | 0.00 | 66 | 1016.3 |
| 20260501200526 | 21 | 173 | 1.6 | 11.3 | 0.00 | 0.00 | 0.00 | 62 | 1016.2 |
| 20260501200045 | 21 | 200 | 3.2 | 11.3 | 0.00 | 0.00 | 0.00 | 61 | 1016.2 |